Regional Weather Roundup
Issued by NWS

Home | Current Version | Previous Version | Text Only | Print | Product List | Glossary On
Versions: 1 2 3 4 5 6 7 8 9 10 11 12 13 14 15 16 17 18 19 20 21 22 23 24 25 26 27 28 29 30 31 32 33 34 35 36 37 38 39 40 41 42 43 44 45 46 47 48 49 50
396
ASUS44 KJAN 200410
RWRMS

MISSISSIPPI HOURLY WEATHER ROUNDUP
NATIONAL WEATHER SERVICE JACKSON MS
1000 PM CST SUN FEB 19 2017

NOTE: "FAIR: INDICATES FEW OR NO CLOUDS BELOW 12,000 FEET WITH NO
SIGNIFICANT WEATHER AND/OR OBSTRUCTIONS TO VISIBILITY.

MSZ001>002-007>008-010>013-018>021-025>028-034>036-200500-
NORTHWEST MISSISSIPPI

CITY           SKY/WX    TMP DP  RH WIND       PRES   REMARKS
BATESVILLE     FAIR      53  50  91 CALM      30.09S
CLEVELAND      FAIR      68  56  65 E10       30.03F
GREENWOOD      PTCLDY    66  52  60 E9        30.05F
GREENVILLE     CLOUDY    66  56  70 E8        30.02F
OXFORD         FAIR      54  48  82 SE6       30.11F
TUNICA         CLEAR     61  52  72 SE9       30.07S
WINONA         FAIR      58  53  83 CALM      30.09S
$$

MSZ003>006-009-014>017-022>024-029>033-037>039-200500-
NORTHEAST MISSISSIPPI

CITY           SKY/WX    TMP DP  RH WIND       PRES   REMARKS
COLUMBUS AFB   CLEAR     51  48  90 CALM      30.11R
CORINTH        FAIR      52  50  93 CALM      30.11S
GOLDN TRIANGLE CLEAR     57  48  72 CALM      30.07S
TUPELO         CLEAR     55  49  80 CALM      30.11R
$$

MSZ040-058-200500-
CENTRAL MISSISSIPPI

CITY           SKY/WX    TMP DP  RH WIND       PRES   REMARKS
JACKSON INTL   CLEAR     65  53  65 E8        30.06F
JACKSON HAWKNS CLEAR     64  52  64 SE6       30.06F
MADISON        FAIR     N/A N/A N/A CALM      30.06S
MERIDIAN KEY   CLEAR     58  55  90 N3        30.11F
MERIDIAN NAS   NOT AVBL
VICKSBURG VKS  PTCLDY    64  50  59 SE3       30.02R
$$

MSZ059>079-200500-
SOUTH MISSISSIPPI

CITY           SKY/WX    TMP DP  RH WIND       PRES   REMARKS
BROOKHAVEN     FAIR     N/A N/A N/A CALM      30.07S
HATTIESBURG    CLEAR     56  53  90 CALM      30.09F
LAUREL         FAIR      60  58  94 CALM      30.09F
MCCOMB         CLEAR     59  52  77 CALM      30.07R
NATCHEZ        CLEAR     66  52  59 SE10      30.03S
PINE BELT      CLEAR     57  50  77 CALM      30.10F
$$

MSZ080>082-200500-
COASTAL MISSISSIPPI

CITY           SKY/WX    TMP DP  RH WIND       PRES   REMARKS
BILOXI         CLEAR     59  59 100 CALM      30.08F
PASCAGOULA     FOG       55  54  96 CALM      30.10F VSB 1/4
GULFPORT       MOCLDY    59  58  96 CALM      30.08F
$$

LAZ007>009-015>016-023>026-200500-
NORTHEAST LOUISIANA

CITY           SKY/WX    TMP DP  RH WIND       PRES   REMARKS
BASTROP        FAIR      65  48  53 CALM      30.02S
TALLULAH/VBURG CLEAR     61  48  62 E5        30.04R
VIDALIA        FAIR      62  53  71 SE3       30.03R
$$




USA.gov is the U.S. government's official web portal to all federal, state and local government web resources and services.